TimePDT,TemperatureF,Dew PointF,Humidity,Sea Level PressureIn,VisibilityMPH,Wind Direction,Wind SpeedMPH,Gust SpeedMPH,PrecipitationIn,Events,Conditions,WindDirDegrees,DateUTC
12:18 AM,57.2,53.6,88,30.13,10.0,SSW,5.8,-,N/A,,Overcast,200,2012-09-21 07:18:00
12:58 AM,57.0,52.3,84,30.14,10.0,SSW,5.8,-,N/A,,Overcast,210,2012-09-21 07:58:00
1:58 AM,56.8,52.3,85,30.14,10.0,SW,5.8,-,N/A,,Overcast,220,2012-09-21 08:58:00
2:58 AM,56.8,52.2,84,30.14,10.0,SSW,4.6,-,N/A,,Overcast,200,2012-09-21 09:58:00
3:58 AM,56.3,52.7,88,30.14,10.0,South,4.6,-,N/A,,Overcast,190,2012-09-21 10:58:00
4:58 AM,55.4,53.2,92,30.14,10.0,South,4.6,-,N/A,,Overcast,180,2012-09-21 11:58:00
5:58 AM,55.0,54.1,97,30.15,10.0,South,3.5,-,N/A,,Overcast,170,2012-09-21 12:58:00
6:28 AM,55.4,53.6,94,30.14,10.0,SE,4.6,-,N/A,,Overcast,140,2012-09-21 13:28:00
6:58 AM,55.0,54.1,97,30.15,10.0,South,3.5,-,N/A,,Overcast,170,2012-09-21 13:58:00
7:58 AM,55.2,54.7,98,30.15,10.0,South,5.8,-,N/A,,Overcast,170,2012-09-21 14:58:00
8:58 AM,56.5,54.3,92,30.15,10.0,South,6.9,-,N/A,,Overcast,170,2012-09-21 15:58:00
9:43 AM,57.2,53.6,88,30.15,10.0,SSW,5.8,-,N/A,,Overcast,200,2012-09-21 16:43:00
9:58 AM,57.9,53.8,86,30.17,10.0,SSW,5.8,-,N/A,,Overcast,210,2012-09-21 16:58:00
10:18 AM,59.0,53.6,82,30.15,10.0,SSW,5.8,-,N/A,,Overcast,200,2012-09-21 17:18:00
10:28 AM,59.0,53.6,82,30.15,10.0,South,5.8,-,N/A,,Overcast,190,2012-09-21 17:28:00
10:43 AM,59.0,53.6,82,30.15,10.0,South,5.8,-,N/A,,Overcast,190,2012-09-21 17:43:00
10:58 AM,59.5,53.1,79,30.16,10.0,South,5.8,-,N/A,,Overcast,180,2012-09-21 17:58:00
11:58 AM,60.6,51.8,73,30.16,10.0,SSW,4.6,-,N/A,,Overcast,210,2012-09-21 18:58:00
12:58 PM,61.2,51.1,69,30.16,10.0,SSW,5.8,-,N/A,,Overcast,200,2012-09-21 19:58:00
1:58 PM,60.6,51.3,71,30.15,10.0,WSW,6.9,-,N/A,,Overcast,240,2012-09-21 20:58:00
2:58 PM,61.2,51.1,69,30.15,10.0,SW,5.8,-,N/A,,Overcast,230,2012-09-21 21:58:00
3:58 PM,61.9,51.3,68,30.14,10.0,SW,4.6,-,N/A,,Overcast,230,2012-09-21 22:58:00
4:28 PM,62.6,51.8,68,30.13,10.0,SW,6.9,-,N/A,,Overcast,220,2012-09-21 23:28:00
4:48 PM,62.6,51.8,68,30.13,10.0,WSW,5.8,-,N/A,,Overcast,240,2012-09-21 23:48:00
4:58 PM,62.1,51.4,68,30.14,10.0,SW,6.9,-,N/A,,Overcast,230,2012-09-21 23:58:00
5:58 PM,59.5,52.7,78,30.14,10.0,West,4.6,-,N/A,,Overcast,280,2012-09-22 00:58:00
6:43 PM,59.0,53.6,82,30.13,10.0,West,6.9,-,N/A,,Overcast,260,2012-09-22 01:43:00
6:53 PM,59.0,53.6,82,30.13,10.0,WSW,4.6,-,N/A,,Overcast,240,2012-09-22 01:53:00
6:58 PM,58.8,53.4,82,30.14,10.0,SW,4.6,-,N/A,,Overcast,230,2012-09-22 01:58:00
7:03 PM,59.0,53.6,82,30.13,10.0,SSW,4.6,-,N/A,,Overcast,210,2012-09-22 02:03:00
7:53 PM,57.2,53.6,88,30.13,10.0,SSE,3.5,-,N/A,,Overcast,160,2012-09-22 02:53:00
7:58 PM,57.9,53.4,85,30.14,10.0,SSE,4.6,-,N/A,,Overcast,160,2012-09-22 02:58:00
8:03 PM,57.2,53.6,88,30.13,10.0,SSE,3.5,-,N/A,,Overcast,160,2012-09-22 03:03:00
8:13 PM,57.2,53.6,88,30.13,10.0,South,3.5,-,N/A,,Overcast,170,2012-09-22 03:13:00
8:58 PM,57.6,52.9,84,30.14,10.0,South,4.6,-,N/A,,Overcast,170,2012-09-22 03:58:00
9:03 PM,57.2,53.6,88,30.13,10.0,South,4.6,-,N/A,,Overcast,170,2012-09-22 04:03:00
9:58 PM,57.4,52.7,84,30.15,10.0,South,3.5,-,N/A,,Overcast,180,2012-09-22 04:58:00
10:58 PM,57.0,52.7,85,30.15,10.0,South,3.5,-,N/A,,Overcast,170,2012-09-22 05:58:00
11:58 PM,56.7,52.5,86,30.16,10.0,SSE,2.3,-,N/A,,Overcast,150,2012-09-22 06:58:00